Wind from 282

Air temperature 21.7° C
Dewpoint 16.6° C

Last reported at 2014-Apr-17 11:32 UTC.
Time now 2014-Apr-17 12:43 UTC

Location: N 38°44' W 009°17'.
View on Google Maps.

See reports from other nearby stations

Tides Stations Pressure Air Temp Water Temp Dewpoint Dewpoint depression Visibility Wind Speed Wind Dir Waves Ship positions

  
sailing weather and tide predictions

CT1OY Oeiras PT weather

date/time (UTC)wind fromknots sea level pressurealtimeterstation pressurevisibilityair tempwater tempwave heightnotes
2014-Apr-17 11:32 282 21.7
2014-Apr-17 11:12 266 0 21.1
2014-Apr-17 11:02 345 21.1
2014-Apr-17 10:52 298 21.1
2014-Apr-17 10:42 056 20.6
2014-Apr-17 10:32 319 20.0
2014-Apr-17 10:22 343 19.4
2014-Apr-17 09:52 302 0 19.4
2014-Apr-17 09:32 314 18.3
2014-Apr-17 09:12 306 17.8
2014-Apr-17 08:52 009 5 17.2
2014-Apr-17 08:42 298 0 17.2
2014-Apr-17 08:32 347 0 16.7
2014-Apr-17 08:22 001 1 16.7
2014-Apr-17 08:02 356 15.6
2014-Apr-17 07:42 287 15.6
2014-Apr-17 07:32 319 0 15.0
2014-Apr-17 07:22 276 3 15.0
2014-Apr-17 07:12 298 14.4
2014-Apr-17 06:42 302 3 13.9
2014-Apr-17 06:32 295 13.9
2014-Apr-17 06:12 276 1 13.9
2014-Apr-17 05:42 307 0 13.9
2014-Apr-17 05:32 345 0 13.9
2014-Apr-17 05:22 281 0 13.9
2014-Apr-17 05:12 287 0 13.9
2014-Apr-17 05:02 333 0 13.9
2014-Apr-17 04:42 319 5 13.9
2014-Apr-17 04:32 291 14.4
2014-Apr-17 04:12 293 1 gusting 10 13.9
2014-Apr-17 04:02 084 3 13.9
2014-Apr-17 03:52 309 3 13.9
2014-Apr-17 03:22 278 13.9
2014-Apr-17 02:32 300 0 14.4
2014-Apr-17 02:22 287 0 14.4
2014-Apr-17 02:12 314 0 gusting 10 14.4
2014-Apr-17 02:02 311 3 gusting 13 14.4
2014-Apr-17 01:52 257 1 gusting 10 14.4
2014-Apr-17 01:32 306 0 13.9
2014-Apr-17 01:12 307 0 13.9
2014-Apr-17 01:02 314 13.9
2014-Apr-17 00:52 297 1 13.9
2014-Apr-17 00:22 301 13.9
2014-Apr-17 00:12 321 13.9
2014-Apr-17 00:02 293 13.9
2014-Apr-16 23:42 072 13.9
2014-Apr-16 23:32 299 13.9
2014-Apr-16 23:12 295 1 gusting 11 13.9
2014-Apr-16 23:02 304 1 gusting 10 13.9
2014-Apr-16 22:52 349 3 13.9
2014-Apr-16 22:22 286 3 13.9
2014-Apr-16 22:02 284 0 gusting 10 13.9
2014-Apr-16 21:52 274 13.9
2014-Apr-16 21:42 105 13.9
2014-Apr-16 21:22 285 13.9
2014-Apr-16 20:42 296 3 gusting 10 14.4
2014-Apr-16 20:32 290 0 gusting 11 14.4
2014-Apr-16 20:12 307 5 gusting 11 15.0
2014-Apr-16 19:42 269 15.6
2014-Apr-16 19:22 300 15.6
2014-Apr-16 19:12 306 6 16.1
2014-Apr-16 18:52 283 16.7
2014-Apr-16 18:42 304 16.7
2014-Apr-16 18:32 292 17.2
2014-Apr-16 18:22 294 17.8
2014-Apr-16 18:12 349 0 17.8
2014-Apr-16 18:02 321 1 17.8
2014-Apr-16 17:52 307 0 17.8
2014-Apr-16 17:42 276 1 gusting 10 17.8
2014-Apr-16 17:32 317 3 gusting 12 17.8
2014-Apr-16 16:32 276 0 18.3
2014-Apr-16 16:22 297 5 18.9
2014-Apr-16 16:12 300 3 19.4
2014-Apr-16 16:02 274 2 19.4
2014-Apr-16 15:42 292 19.4
2014-Apr-16 15:22 276 18.9
2014-Apr-16 15:11 280 18.9
2014-Apr-16 15:02 280 18.9
2014-Apr-16 14:32 281 19.4
2014-Apr-16 14:22 013 19.4
2014-Apr-16 14:12 023 20.0
2014-Apr-16 13:52 290 19.4
2014-Apr-16 13:42 014 18.9
2014-Apr-16 13:32 036 18.9
2014-Apr-16 13:21 301 19.4
2014-Apr-16 13:11 283 19.4
2014-Apr-16 12:51 287 17.8
2014-Apr-16 12:42 281 0 17.2
2014-Apr-16 12:32 302 17.2
2014-Apr-16 12:22 269 17.8
2014-Apr-16 11:52 311 18.3
2014-Apr-16 11:31 284 17.8
2014-Apr-16 11:11 255 18.3
2014-Apr-16 11:01 291 18.3
2014-Apr-16 10:31 289 18.9
2014-Apr-16 10:22 352 18.9
2014-Apr-16 10:12 115 17.8
2014-Apr-16 10:01 096 17.8
2014-Apr-16 09:52 122 17.8
2014-Apr-16 09:21 231 17.2
2014-Apr-16 09:12 139 17.2
2014-Apr-16 08:21 077 16.1
2014-Apr-16 08:11 229 16.1
2014-Apr-16 08:02 139 16.1
2014-Apr-16 07:32 140 15.6
2014-Apr-16 07:21 140 15.6
2014-Apr-16 07:02 139 15.0
2014-Apr-16 06:42 158 15.0
2014-Apr-16 06:21 127 15.0
2014-Apr-16 06:02 105 15.0
2014-Apr-16 05:51 105 15.0
2014-Apr-16 05:21 115 15.0
2014-Apr-16 05:01 125 15.0
2014-Apr-16 04:51 253 15.0
2014-Apr-16 04:41 253 15.0
2014-Apr-16 04:32 253 15.0
2014-Apr-16 03:41 253 15.0
2014-Apr-16 03:21 253 15.0
2014-Apr-16 03:01 253 15.0
2014-Apr-16 02:51 253 15.0
2014-Apr-16 02:41 253 15.0
2014-Apr-16 02:32 253 15.0
2014-Apr-16 02:11 252 15.0
2014-Apr-16 01:51 240 15.0
2014-Apr-16 01:41 240 15.0
2014-Apr-16 01:21 238 14.4
2014-Apr-16 01:11 138 14.4
2014-Apr-16 01:01 138 15.0
2014-Apr-16 00:41 138 14.4
2014-Apr-16 00:12 211 14.4
2014-Apr-15 23:41 211 15.0
2014-Apr-15 23:21 211 15.0
2014-Apr-15 23:11 211 15.0
2014-Apr-15 22:41 125 15.0
2014-Apr-15 22:31 135 15.0
2014-Apr-15 22:11 266 15.0
2014-Apr-15 22:01 266 15.0
2014-Apr-15 21:51 266 15.6
2014-Apr-15 21:41 266 15.6
2014-Apr-15 21:31 266 15.6
2014-Apr-15 21:11 268 15.6
2014-Apr-15 21:01 268 15.6
2014-Apr-15 20:51 270 15.6
2014-Apr-15 20:31 105 15.6
2014-Apr-15 20:21 104 15.6
2014-Apr-15 20:12 108 15.6
2014-Apr-15 20:01 162 15.6
2014-Apr-15 19:31 127 16.1
2014-Apr-15 19:21 115 16.1
2014-Apr-15 19:02 114 16.1
2014-Apr-15 18:41 130 16.7
2014-Apr-15 18:31 081 17.2
2014-Apr-15 18:11 113 17.2
2014-Apr-15 18:01 122 17.8
2014-Apr-15 17:21 118 18.3
2014-Apr-15 17:01 111 3 18.3
2014-Apr-15 16:51 221 0 18.3
2014-Apr-15 16:41 122 18.3
2014-Apr-15 16:11 113 5 18.3
2014-Apr-15 15:51 082 1 18.9
2014-Apr-15 15:31 092 18.9
2014-Apr-15 15:01 098 2 18.9
2014-Apr-15 14:51 141 1 19.4
2014-Apr-15 14:41 156 0 19.4
2014-Apr-15 14:31 088 1 19.4
2014-Apr-15 14:21 129 2 18.9
2014-Apr-15 13:51 136 19.4
2014-Apr-15 13:21 118 20.0
2014-Apr-15 13:01 114 2 20.0
2014-Apr-15 12:41 072 19.4
2014-Apr-15 12:32 087 1 18.9
2014-Apr-15 12:21 158 18.3
2014-Apr-15 12:11 150 1 18.9
2014-Apr-15 12:01 142 18.9